Location: Crayja
(6.2254°N, 10.6273°W)
Time: 10:18:54
(UTC+00:00)

Cosmos 1934 Rocket - Pass Details

Date: 17 February 2020
Orbit: 939 x 998 km, 83.0° (Epoch: 28 March)

Event Time Altitude Azimuth Distance (km) Brightness Sun altitude
Rises 05:40:27 0° 347° (NNW) 3,694 6.8 -19.9°
Reaches altitude 10° 05:43:02 10° 342° (NNW) 2,751 6.1 -19.2°
Maximum altitude 05:49:08 52° 268° (W) 1,218 4.1 -17.7°
Drops below altitude 10° 05:55:17 10° 193° (SSW) 2,760 6.4 -16.2°
Sets 05:57:52 0° 188° (S) 3,707 7.1 -15.6°
